• en Suisse
  • Liste des pays
  • À 7 jours
  • Température de l'eau
  • Carte satellitaire
  • Carte météo
  • Widgets météo
  • user-avatar
    Se connecter

    Météo par heure à Polonsk

    Ce jour, 19 Septembre, Mercredi

    Heure Température Précipitation Vent Pression Humidité
    00:00 +16°C° 0 mm 2 m/s 751 mmHg 86%
    01:00 +16°C° 0 mm 2 m/s 751 mmHg 88%
    02:00 +15°C° 0 mm 2 m/s 751 mmHg 90%
    03:00 +15°C° 0 mm 2 m/s 751 mmHg 91%
    04:00 +15°C° 0 mm 2 m/s 751 mmHg 91%
    05:00 +15°C° 0 mm 2 m/s 751 mmHg 92%
    06:00 +16°C° 0 mm 3 m/s 751 mmHg 88%
    07:00 +17°C° 0 mm 3 m/s 751 mmHg 84%
    08:00 +18°C° 0 mm 3 m/s 751 mmHg 79%
    09:00 +19°C° 0 mm 4 m/s 751 mmHg 73%
    10:00 +21°C° 0 mm 4 m/s 751 mmHg 68%
    11:00 +23°C° 0 mm 4 m/s 751 mmHg 62%
    12:00 +25°C° 0 mm 4 m/s 751 mmHg 58%
    13:00 +26°C° 0 mm 4 m/s 751 mmHg 54%
    14:00 +27°C° 0 mm 4 m/s 751 mmHg 50%
    15:00 +27°C° 0 mm 4 m/s 751 mmHg 54%
    16:00 +26°C° 0 mm 3 m/s 750 mmHg 57%
    17:00 +26°C° 0 mm 3 m/s 750 mmHg 60%
    18:00 +24°C° 0 mm 3 m/s 750 mmHg 64%
    19:00 +21°C° 0 mm 3 m/s 750 mmHg 67%
    20:00 +19°C° 0 mm 3 m/s 751 mmHg 70%
    21:00 +19°C° 0 mm 3 m/s 751 mmHg 71%
    22:00 +18°C° 0 mm 3 m/s 751 mmHg 72%
    23:00 +18°C° 0 mm 3 m/s 751 mmHg 72%

    Demain, 20 Septembre, Jeudi

    Heure Température Précipitation Vent Pression Humidité
    00:00 +17°C° 0 mm 2 m/s 751 mmHg 74%
    01:00 +17°C° 0 mm 2 m/s 751 mmHg 75%
    02:00 +17°C° 0 mm 2 m/s 751 mmHg 76%
    03:00 +16°C° 0 mm 2 m/s 751 mmHg 77%
    04:00 +16°C° 0 mm 2 m/s 751 mmHg 79%
    05:00 +16°C° 0 mm 2 m/s 751 mmHg 80%
    06:00 +17°C° 0 mm 2 m/s 751 mmHg 78%
    07:00 +17°C° 0 mm 2 m/s 752 mmHg 76%
    08:00 +18°C° 0 mm 2 m/s 752 mmHg 74%
    09:00 +20°C° 0 mm 2 m/s 752 mmHg 69%
    10:00 +23°C° 0 mm 2 m/s 752 mmHg 64%
    11:00 +25°C° 0 mm 2 m/s 752 mmHg 59%
    12:00 +26°C° 0 mm 3 m/s 752 mmHg 57%
    13:00 +27°C° 0 mm 3 m/s 752 mmHg 54%
    14:00 +28°C° 0 mm 3 m/s 752 mmHg 52%
    15:00 +27°C° 0 mm 2 m/s 751 mmHg 55%
    16:00 +27°C° 0 mm 2 m/s 751 mmHg 58%
    17:00 +27°C° 0 mm 1 m/s 751 mmHg 60%
    18:00 +25°C° 0 mm 1 m/s 751 mmHg 64%
    19:00 +23°C° 0 mm 2 m/s 751 mmHg 68%
    20:00 +20°C° 0 mm 2 m/s 751 mmHg 72%
    21:00 +20°C° 0 mm 2 m/s 751 mmHg 73%
    22:00 +19°C° 0 mm 2 m/s 751 mmHg 74%
    23:00 +19°C° 0 mm 2 m/s 751 mmHg 75%

    Après-demain, 21 Septembre, Vendredi

    Heure Température Précipitation Vent Pression Humidité
    00:00 +18°C° 0 mm 2 m/s 751 mmHg 76%
    01:00 +18°C° 0 mm 2 m/s 751 mmHg 76%
    02:00 +18°C° 0 mm 2 m/s 751 mmHg 77%
    03:00 +17°C° 0 mm 2 m/s 751 mmHg 78%
    04:00 +17°C° 0 mm 2 m/s 751 mmHg 78%
    05:00 +16°C° 0 mm 2 m/s 751 mmHg 79%
    06:00 +17°C° 0 mm 2 m/s 751 mmHg 77%
    07:00 +18°C° 0 mm 2 m/s 751 mmHg 75%
    08:00 +18°C° 0 mm 3 m/s 751 mmHg 73%
    09:00 +20°C° 0 mm 3 m/s 751 mmHg 68%
    10:00 +22°C° 0 mm 3 m/s 751 mmHg 63%
    11:00 +25°C° 0 mm 4 m/s 751 mmHg 57%
    12:00 +25°C° 0 mm 4 m/s 750 mmHg 55%
    13:00 +26°C° 0 mm 5 m/s 750 mmHg 52%
    14:00 +27°C° 0 mm 5 m/s 749 mmHg 50%
    15:00 +26°C° 0 mm 4 m/s 748 mmHg 53%
    16:00 +26°C° 0 mm 4 m/s 748 mmHg 57%
    17:00 +25°C° 0 mm 4 m/s 747 mmHg 61%
    18:00 +23°C° 0 mm 4 m/s 747 mmHg 62%
    19:00 +21°C° 0 mm 4 m/s 747 mmHg 63%
    20:00 +20°C° 0 mm 4 m/s 747 mmHg 64%
    21:00 +20°C° 0 mm 4 m/s 746 mmHg 66%
    22:00 +19°C° 0 mm 5 m/s 746 mmHg 67%
    23:00 +19°C° 0 mm 5 m/s 746 mmHg 69%

    22 Septembre, Samedi

    Heure Température Précipitation Vent Pression Humidité
    00:00 +19°C° 0 mm 5 m/s 745 mmHg 69%
    01:00 +19°C° 0 mm 5 m/s 745 mmHg 70%
    02:00 +19°C° 0 mm 5 m/s 745 mmHg 71%
    03:00 +17°C° 0.1 mm 5 m/s 745 mmHg 73%
    04:00 +18°C° 0.1 mm 4 m/s 746 mmHg 74%
    05:00 +17°C° 0.1 mm 4 m/s 746 mmHg 76%
    06:00 +15°C° 0.2 mm 4 m/s 746 mmHg 79%
    07:00 +14°C° 0.2 mm 4 m/s 747 mmHg 82%
    08:00 +13°C° 0.2 mm 4 m/s 747 mmHg 85%
    09:00 +14°C° 0.1 mm 4 m/s 748 mmHg 79%
    10:00 +14°C° 0.1 mm 4 m/s 748 mmHg 74%
    11:00 +14°C° 0.1 mm 4 m/s 749 mmHg 68%
    12:00 +14°C° 0.1 mm 4 m/s 749 mmHg 67%
    13:00 +14°C° 0.1 mm 4 m/s 749 mmHg 65%
    14:00 +14°C° 0.1 mm 4 m/s 749 mmHg 64%
    15:00 +14°C° 0.2 mm 4 m/s 749 mmHg 66%
    16:00 +13°C° 0.2 mm 4 m/s 749 mmHg 69%
    17:00 +13°C° 0.2 mm 4 m/s 749 mmHg 71%
    18:00 +12°C° 0.1 mm 4 m/s 749 mmHg 73%
    19:00 +12°C° 0.1 mm 5 m/s 749 mmHg 74%
    20:00 +10°C° 0.1 mm 5 m/s 749 mmHg 75%
    21:00 +11°C° 0 mm 4 m/s 749 mmHg 77%
    22:00 +10°C° 0 mm 4 m/s 749 mmHg 80%
    23:00 +8°C° 0 mm 4 m/s 749 mmHg 82%

    23 Septembre, Dimanche

    Heure Température Précipitation Vent Pression Humidité
    00:00 +8°C° 0 mm 4 m/s 748 mmHg 82%
    01:00 +8°C° 0 mm 4 m/s 748 mmHg 82%
    02:00 +8°C° 0 mm 4 m/s 748 mmHg 82%
    03:00 +7°C° 0 mm 4 m/s 748 mmHg 82%
    04:00 +7°C° 0 mm 4 m/s 748 mmHg 82%
    05:00 +7°C° 0 mm 4 m/s 748 mmHg 81%
    06:00 +8°C° 0 mm 4 m/s 748 mmHg 78%
    07:00 +8°C° 0 mm 4 m/s 748 mmHg 75%
    08:00 +9°C° 0 mm 5 m/s 748 mmHg 71%
    09:00 +10°C° 0 mm 5 m/s 748 mmHg 65%
    10:00 +13°C° 0 mm 6 m/s 749 mmHg 60%
    11:00 +14°C° 0 mm 7 m/s 749 mmHg 54%
    12:00 +15°C° 0 mm 6 m/s 748 mmHg 52%
    13:00 +15°C° 0 mm 6 m/s 748 mmHg 50%
    14:00 +16°C° 0 mm 6 m/s 748 mmHg 47%
    15:00 +15°C° 0 mm 5 m/s 748 mmHg 50%
    16:00 +15°C° 0 mm 4 m/s 747 mmHg 53%
    17:00 +14°C° 0 mm 3 m/s 747 mmHg 56%
    18:00 +13°C° 0 mm 3 m/s 747 mmHg 58%
    19:00 +11°C° 0 mm 3 m/s 747 mmHg 60%
    20:00 +10°C° 0 mm 2 m/s 747 mmHg 62%
    21:00 +10°C° 0 mm 3 m/s 746 mmHg 62%
    22:00 +10°C° 0 mm 3 m/s 746 mmHg 62%
    23:00 +11°C° 0 mm 3 m/s 745 mmHg 61%

    24 Septembre, Lundi

    Heure Température Précipitation Vent Pression Humidité
    00:00 +11°C° 0.4 mm 4 m/s 744 mmHg 67%
    01:00 +10°C° 0.4 mm 4 m/s 743 mmHg 73%
    02:00 +9°C° 0.4 mm 5 m/s 742 mmHg 79%
    03:00 +9°C° 1.9 mm 6 m/s 741 mmHg 83%
    04:00 +9°C° 1.9 mm 7 m/s 740 mmHg 87%
    05:00 +9°C° 1.9 mm 8 m/s 738 mmHg 91%
    06:00 +9°C° 2.7 mm 8 m/s 737 mmHg 91%
    07:00 +9°C° 2.7 mm 8 m/s 736 mmHg 90%
    08:00 +9°C° 2.7 mm 8 m/s 734 mmHg 89%
    09:00 +10°C° 0.7 mm 8 m/s 734 mmHg 89%
    10:00 +11°C° 0.7 mm 7 m/s 733 mmHg 89%
    11:00 +12°C° 0.7 mm 7 m/s 732 mmHg 88%
    12:00 +12°C° 0.6 mm 7 m/s 731 mmHg 89%
    13:00 +13°C° 0.6 mm 6 m/s 730 mmHg 89%
    14:00 +13°C° 0.6 mm 6 m/s 730 mmHg 90%
    15:00 +13°C° 1 mm 6 m/s 729 mmHg 89%
    16:00 +13°C° 1 mm 6 m/s 729 mmHg 89%
    17:00 +11°C° 1 mm 6 m/s 728 mmHg 89%
    18:00 +11°C° 0.2 mm 6 m/s 727 mmHg 89%
    19:00 +10°C° 0.2 mm 6 m/s 727 mmHg 90%
    20:00 +10°C° 0.2 mm 6 m/s 726 mmHg 90%
    21:00 +9°C° 0.2 mm 6 m/s 727 mmHg 90%
    22:00 +9°C° 0.2 mm 7 m/s 727 mmHg 89%
    23:00 +9°C° 0.2 mm 7 m/s 728 mmHg 89%
    Voir plus